Regional Weather Roundup
Issued by NWS Northern Indiana

Home | Current Version | Previous Version | Text Only | Print | Product List | Glossary Off
Versions: 1 2 3 4 5 6 7 8 9 10 11 12 13 14 15 16 17 18 19 20 21 22 23 24 25 26 27 28 29 30 31 32 33 34 35 36 37 38 39 40 41 42 43 44 45 46 47 48 49 50

000
ASUS43 KIWX 302300
RWRIWX

KIWX WEATHER ROUNDUP
NATIONAL WEATHER SERVICE NORTHERN INDIANA
700 PM EDT TUE SEP 30 2014

NOTE: "FAIR" INDICATES FEW OR NO CLOUDS BELOW 12,000 FEET WITH NO
SIGNIFICANT WEATHER AND/OR OBSTRUCTIONS TO VISIBILITY.

* THESE STATIONS ARE NOT UNDER NWS QUALITY CONTROL. THEY ALSO MAY NOT
  REPORT WEATHER SUCH AS PRECIPITATION OR FOG.

INZ001>027-010000-
NORTHERN INDIANA

CITY           SKY/WX    TMP DP  RH WIND       PRES   REMARKS
SOUTH BEND     NOT AVBL
ELKHART*       CLOUDY    54  45  71 CALM      30.01S
WARSAW*        CLOUDY    54  46  76 NE5       30.00S
ANGOLA*        CLOUDY    55  48  76 CALM      29.99R
FORT WAYNE     MOCLDY    55  47  74 N6        30.00R
PERU/GRISSOM   CLEAR     58  52  79 NE9       29.97R

$$
INZ028>050-010000-
CENTRAL INDIANA

CITY           SKY/WX    TMP DP  RH WIND       PRES   REMARKS
LAFAYETTE      PTCLDY    62  48  60 N10       29.96R
KOKOMO*        CLEAR     59  46  63 NE12      29.97R
MUNCIE*        CLEAR     59  48  67 NE12      29.97R
INDIANAPOLIS   MOCLDY    65  52  62 NW6       29.93S

$$
MIZ043>046-050>051-056>058-064>065-071>073-077>080-010000-
SOUTHWEST LOWER MICHIGAN

CITY           SKY/WX    TMP DP  RH WIND       PRES   REMARKS
BATTLE CREEK   CLOUDY    56  47  71 N6        30.00S
COLDWATER*     CLOUDY    57  50  77 N3        29.99R
HILLSDALE*     CLOUDY    56  50  80 N5        29.99R
HOLLAND        CLOUDY    57  48  72 NE5       30.01
GRAND RAPIDS   CLOUDY    56  49  77 N7        30.01R
KALAMAZOO      CLOUDY    55  47  74 N7        30.01R
STURGIS*       CLOUDY    54  48  82 CALM      29.99S
THREE RIVERS*  CLOUDY    55  49  80 CALM      30.01R

$$
OHZ001>008-015>018-024>025-010000-
NORTHWEST OHIO

CITY           SKY/WX    TMP DP  RH WIND       PRES   REMARKS
DEFIANCE       CLOUDY    58  48  69 N6        29.99R
FINDLAY        CLOUDY    58  50  75 N8        29.97R
TOLEDO EXPRESS CLOUDY    57  49  74 N3        29.98R
TOLEDO METCALF CLOUDY    58  49  72 NW5       29.98R
LIMA           CLOUDY    58  48  69 NW5       29.97S

$$
AND FOR LAKE MICHIGAN COASTAL AND OPEN LAKE BUOY OBSERVATIONS

STATION/POSITION TEMP    WIND        PRES    VSBY  WAVE
                 AIR SEA DIR/SP/G                  HT/PER
                 (F)     (DEG/KT/KT) (MB)    (MI)  (FT/S)
CALUMET HARBOR    55     360/  7/  9 1015.0R
MICHIGAN CITY     54      20/ 11/ 16   N/A
SAINT JOSEPH      54      CALM  /  8 1017.3R
SOUTH LAKE BUOY   54 62   20/ 14/ 16 1016.5R         4/ 7
4 MI NW BRIDGMAN  55 62   50/  8/ 12   N/A           3/ 2
MICHIGAN CITY     55 64   60/ 10/ 14   N/A           5/ 2

$$
&&


USA.gov is the U.S. government's official web portal to all federal, state and local government web resources and services.